www.pogodaiklimat.ru

Погода и климат >> Архив погоды >> Мьянма >> Катха


ПОГОДА в Катхе

  • Прогноз погоды в Катхе
  • Монитор погоды в Катхе

АРХИВ ПОГОДЫ в Катхе

Время (UTC), дата Ветер
(напр.,м/с)
 
Видим.   Явления Облачность Т
(С)
Тd
(С)
f
(%)
Тe
(С)
Тes
(С)
Комфортность P
(гПа)
Po
(гПа)
Тmin
(С)
Tmax
(С)
R
(мм)
R24
(мм)
S
(см)
06 13.05 ЮЗ 2 8000 м {гроза, морось} 8/4 600 м
[Cu Sc Ac As]
+31.5 +26.0 73 +47 +54 опасность
перегрева
1007.6 996.9
09 13.05 СВ 1 10 км 3/3 1000 м
[Cu med, cong]
+33.5 +20.6 47 +40 +49 очень
душно
1004.2 993.6
12 13.05 ЮЗ 1 4000 м 3/3 1000 м
[Cu med, cong]
+30.5 +25.4 74 +44 +44 опасность
перегрева
1003.2 992.5 +36.6 0.0
00 14.05 СВ 1 4000 м 4/3 1000 м
[Cu med, cong Ac lent]
+25.0 +22.6 87 +33 +34 очень
душно
1006.0 995.1 +23.2
03 14.05 СЗ 1 7000 м 3/1 1000 м
[Cu hum Ac lent]
+32.5 +27.0 73 +51 +63 опасность
перегрева
1008.1 997.4
06 14.05 З 1 7000 м 10/5 600 м
[Cu Sc Ac As]
+33.5 +26.4 66 +50 +54 опасность
перегрева
1006.7 996.1
09 14.05 В 2 10 км 4/3 1000 м
[Cu med, cong Ac lent]
+35.5 +27.9 65 +56 +62 опасность
перегрева
1003.2 992.7
12 14.05 ЮЗ 2 4000 м 1/1 1000 м
[Cu hum]
+33.0 +26.7 70 +51 +51 опасность
перегрева
1001.7 991.1 +35.6
00 15.05 штиль 0 4000 м 4/1 1000 м
[Cu hum Ac lent Ci sp]
+24.0 +22.6 92 +31 +33 очень
душно
1006.5 995.6 +22.0
03 15.05 ЮВ 1 8000 м ясно +32.0 +24.8 66 +45 +62 опасность
перегрева
1008.8 998.1
06 15.05 СЗ 2 9000 м 6/4 600 м
[Cu Sc Ac lent]
+36.0 +27.8 63 +56 +66 опасность
перегрева
1007.0 996.5
09 15.05 СВ 2 8000 м 9/5 600 м
[Cu Sc Ac As]
+35.5 +27.9 65 +56 +58 опасность
перегрева
1004.0 993.5
12 15.05 штиль 0 4000 м 4/3 1000 м
[Cu med, cong Ac lent]
+31.0 +26.1 75 +46 +46 опасность
перегрева
1003.3 992.6 +37.4
00 16.05 штиль 0 4000 м 1/1 1000 м
[Cu hum]
+23.4 +22.0 92 +32 +34 очень
душно
1006.5 995.5 +21.5
03 16.05 ЮЗ 2 7000 м ясно +31.0 +25.4 72 +45 +60 опасность
перегрева
1008.7 998.0
06 16.05 ЮЗ 2 10 км 4/3 1000 м
[Cu med, cong Ac lent]
+36.5 +27.6 60 +56 +69 опасность
перегрева
1005.8 995.3
09 16.05 ЮЗ 2 9000 м 8/4 600 м
[Cu Sc Ac As]
+34.6 +26.8 64 +52 +55 опасность
перегрева
1003.9 993.4
12 16.05 ЮЗ 1 5000 м 3/3 1000 м
[Cu med, cong]
+34.5 +26.8 64 +52 +52 опасность
перегрева
1002.0 991.5 +38.2
00 17.05 штиль 0 5000 м ясно +25.5 +22.4 83 +33 +35 очень
душно
1004.3 993.4 +23.5
03 17.05 СВ 2 7000 м ясно +32.0 +24.8 66 +45 +60 опасность
перегрева
1006.1 995.5
06 17.05 СВ 2 9000 м 5/3 1000 м
[Cu med, cong Ac lent]
+37.0 +28.2 61 +58 +70 опасность
перегрева
1004.8 994.3
09 17.05 ЮЗ 3 10 км 5/3 1000 м
[Cu med, cong Ac lent]
+38.0 +28.5 59 +60 +64 опасность
перегрева
1001.8 991.4
12 17.05 СЗ 1 5000 м 4/3 1000 м
[Cu med, cong Ac lent]
+35.5 +27.2 62 +54 +54 опасность
перегрева
1000.4 989.9 +38.5
00 18.05 ЮВ 1 4000 м 6/4 600 м
[Cu Sc Ac lent]
+25.5 +23.1 87 +34 +35 очень
душно
1003.3 992.5 +23.7
03 18.05 СВ 1 7000 м ясно +34.0 +25.7 62 +49 +66 опасность
перегрева
1005.3 994.7
06 18.05 СВ 3 8000 м 4/3 600 м
[Cu Sc Ac lent]
+38.5 +28.1 56 +59 +70 опасность
перегрева
1003.9 993.5
09 18.05 ЮЗ 2 10 км 5/3 1000 м
[Cu med, cong Ac lent]
+40.0 +30.1 58 +66 +72 опасность
перегрева
1000.5 990.2
12 18.05 СЗ 1 4000 м 1/1 1000 м
[Cu hum]
+37.0 +25.8 53 +52 +52 опасность
перегрева
1000.1 989.7 +40.7
00 19.05 штиль 0 4000 м ясно +25.0 +23.3 90 +33 +35 очень
душно
1005.4 994.5 +23.8
03 19.05 СВ 1 8000 м ясно +33.1 +25.8 66 +49 +66 опасность
перегрева
1007.2 996.6
06 19.05 СВ 2 11 км 1/1 1000 м
[Cu hum]
+38.0 +28.5 59 +60 +79 опасность
перегрева
1005.8 995.4
09 19.05 ЮВ 1 9000 м 4/3 600 м
[Cu Sc Ac lent]
+40.0 +30.1 58 +66 +73 опасность
перегрева
1002.7 992.4
12 19.05 штиль 0 4000 м 1/0
[Ac lent]
+37.0 +27.4 58 +56 +56 опасность
перегрева
1002.3 991.9 +40.5
00 20.05 штиль 0 4000 м 3/1 600 м
[Cu hum Ac lent]
+26.1 +24.6 91 +37 +38 очень
душно
1005.7 994.8 +24.5
03 20.05 ЮВ 2 6000 м 5/3 600 м
[Cu Sc Ac As]
+34.0 +27.0 67 +52 +60 опасность
перегрева
1007.2 996.6

 

Местоположение метеостанции Катха (Мьянма): широта 24.17 долгота 96.33 высота над уровнем моря 95 м.

В архиве по умолчанию представлена погода в Катхе за последнюю неделю. Архивные данные за месяц целиком и за предыдущие месяцы, начиная с января 2011 года, Вы можете получить, выбрав интересующий диапазон дат из раскрывающегося списка и нажав кнопку "Ввод!".


*Определитесь, кто Вы:
робот инопланетянин человек

Внимание! Время в таблицах - всемирное. Для получения местного времени необходимо прибавить поправку, которая равна 6.5 ч.

Смотрите также архив погоды в соседних городах и на ближайших метеорологических станциях:

Погода в Банмо (Мьянма) (89 км)
Погода в Могоу (Мьянма) (140 км)
Погода в Жуйли (Юньнань, Китай) (153 км)
Погода в Хомалине (Мьянма) (163 км)
Погода в Мьичине (Мьянма) (172 км)
Погода в Шуэбо (Мьянма) (187 км)
Погода в Лашо (Мьянма) (200 км)
Погода в Молейке (Мьянма) (203 км)
Погода в Хкамти (Мьянма) (213 км)
Погода в Калеве (Мьянма) (233 км)

Пояснения к столбцам:

Ветер - указаны скорость ветра в м/с - средняя за 10 мин, порывы в срок и между сроками (в фигурных скобках) и направление, откуда дует ветер: С - северный, СВ - северо-восточный, В - восточный, ЮВ - юго-восточный, Ю - южный, ЮЗ - юго-западный, З - западный, СЗ - северо-западный.
Видимость - горизонтальная дальность видимости в метрах или километрах. При видимости от 1 до 10 км при отсутствии осадков обычно наблюдается дымка, при ухудшении видимости до 1 км и менее - туман. В сухую погоду видимость может ухудшаться дымом, пылью или мглою.
Явления - указаны атмосферные явления, наблюдавшиеся в срок или в последний час перед сроком; фигурными скобками обозначены явления, наблюдавшиеся между сроками (за 1-3 часа до срока); квадратными скобками обозначены град или гололедные отложения с указанием их диаметра в мм.
Облачность - указаны через наклонную черту общая и нижняя облачность в баллах и высота нижней границы облаков в метрах; квадратными скобками обозначены формы облаков: Ci - перистые, Cs - перисто-слоистые, Cc - перисто-кучевые, Ac - высококучевые, As - высокослоистые, Sc - слоисто-кучевые, Ns - слоисто-дождевые, Cu - кучевые, Cb - кучево-дождевые. Подробнее классификацию облаков см. в Атласе облаков (PDF).
T - Температура воздуха - температура, измеренная на высоте 2 м над землей.
Td - Температура точки росы - температура, при понижении до которой содержащийся в воздухе водяной пар достигнет насыщения.
f - Относительная влажность воздуха - влажноcть воздуха, измеренная на высоте 2 м над землей.
Te - Эффективная температура - температура, которую ощущает одетый по сезону человек в тени. Характеристика душности погоды. При расчете учитывается влияние влажности воздуха и скорости ветра на теплоощущения человека.
Tes - Эффективная температура на солнце - температура, которую ощущает человек, с поправкой на солнечный нагрев. Характеристика знойности погоды. Зависит от высоты солнца над горизонтом, облачности и скорости ветра. Ночью, в пасмурную погоду, а также при ветре 12 м/с и более поправка равна нулю.
P - Атмосферное давление - приведенное к уровню моря атмосферное давление.
Po - Атмосферное давление - измеренное на уровне метеостанции атмосферное давление.
Tmin - Минимальная температура - минимум температуры воздуха на высоте 2 м над землей.
Tmax - Максимальная температура - максимум температуры воздуха на высоте 2 м над землей.
R - Количество осадков - Количество выпавших осадков за период времени, мм. При наведении курсора мыши на число - период времени, за который выпало указанное количество осадков.
R24 - Количество осадков - Количество выпавших осадков за 24 часа, мм.
S - Снежный покров - Высота снежного покрова, см. При наведении курсора мыши на число - состояние снежного покрова и степень покрытия местности в баллах.